Location: Aix-en-Ergny
(50.5839°N, 1.9996°E)
Time: 01:48:47
(UTC+00:00)

Cosmos 1908 - Pass Details

Date: 23 October 2019
Orbit: 511 x 532 km, 82.5° (Epoch: 16 November)

Event Time Altitude Azimuth Distance (km) Brightness Sun altitude
Rises 04:09:56 0° 354° (N) 2,652 6.9 -22.4°
Reaches altitude 10° 04:12:10 10° 2° (N) 1,756 6.0 -22.0°
Maximum altitude 04:15:51 43° 75° (ENE) 740 4.4 -21.4°
Drops below altitude 10° 04:19:29 10° 147° (SSE) 1,734 6.2 -20.9°
Sets 04:21:40 0° 155° (SSE) 2,614 7.0 -20.5°
